owner,sensor,date,latitude,longitude,vertical_datum,sea_water_practical_salinity,qcFlag 
NERRS,ioos:station:NOAA.NERRS:gndbhwq:1,2014-04-01T08:00:00Z,30.4178,-88.4054,1.21,0.1,1111122 
NERRS,ioos:station:NOAA.NERRS:gndbhwq:1,2014-04-01T09:00:00Z,30.4178,-88.4054,1.23,0.1,1111122 
NERRS,ioos:station:NOAA.NERRS:gndbhwq:1,2014-04-01T10:00:00Z,30.4178,-88.4054,1.26,0.1,1111122 
NERRS,ioos:station:NOAA.NERRS:gndbhwq:1,2014-04-01T11:00:00Z,30.4178,-88.4054,1.24,0.5,1111122 
NERRS,ioos:station:NOAA.NERRS:gndbhwq:1,2014-04-01T12:00:00Z,30.4178,-88.4054,1.34,14.3,1111122 
NERRS,ioos:station:NOAA.NERRS:gndbhwq:1,2014-04-01T13:00:00Z,30.4178,-88.4054,1.35,15.2,1111122 
NERRS,ioos:station:NOAA.NERRS:gndbhwq:1,2014-04-01T14:00:00Z,30.4178,-88.4054,1.44,15.3,1111122 
NERRS,ioos:station:NOAA.NERRS:gndbhwq:1,2014-04-01T15:00:00Z,30.4178,-88.4054,1.5,15.3,1111122 
NERRS,ioos:station:NOAA.NERRS:gndbhwq:1,2014-04-01T16:00:00Z,30.4178,-88.4054,1.51,15.8,1111122 
NERRS,ioos:station:NOAA.NERRS:gndbhwq:1,2014-04-01T17:00:00Z,30.4178,-88.4054,1.45,15.1,1111122 
NERRS,ioos:station:NOAA.NERRS:gndbhwq:1,2014-04-01T18:00:00Z,30.4178,-88.4054,1.41,16.4,1111122 
NERRS,ioos:station:NOAA.NERRS:gndbhwq:1,2014-04-01T19:00:00Z,30.4178,-88.4054,1.46,14.7,1111122 
NERRS,ioos:station:NOAA.NERRS:gndbhwq:1,2014-04-01T20:00:00Z,30.4178,-88.4054,1.44,13.4,1111122 
NERRS,ioos:station:NOAA.NERRS:gndbhwq:1,2014-04-01T21:00:00Z,30.4178,-88.4054,1.34,0.5,1111122 
NERRS,ioos:station:NOAA.NERRS:gndbhwq:1,2014-04-01T22:00:00Z,30.4178,-88.4054,1.24,0.5,1111122 
NERRS,ioos:station:NOAA.NERRS:gndbhwq:1,2014-04-01T23:00:00Z,30.4178,-88.4054,1.13,0.7,1111122 
NERRS,ioos:station:NOAA.NERRS:gndbhwq:1,2014-04-02T00:00:00Z,30.4178,-88.4054,1.04,0.4,1111122 
NERRS,ioos:station:NOAA.NERRS:gndbhwq:1,2014-04-02T01:00:00Z,30.4178,-88.4054,1.04,0.4,1111122 
NERRS,ioos:station:NOAA.NERRS:gndbhwq:1,2014-04-02T02:00:00Z,30.4178,-88.4054,1.06,0.3,1111122 
NERRS,ioos:station:NOAA.NERRS:gndbhwq:1,2014-04-02T03:00:00Z,30.4178,-88.4054,1.09,0.3,1111122 
NERRS,ioos:station:NOAA.NERRS:gndbhwq:1,2014-04-02T04:00:00Z,30.4178,-88.4054,1.09,0.2,1111122 
NERRS,ioos:station:NOAA.NERRS:gndbhwq:1,2014-04-02T05:00:00Z,30.4178,-88.4054,1.16,0.4,1111122 
NERRS,ioos:station:NOAA.NERRS:gndbhwq:1,2014-04-02T06:00:00Z,30.4178,-88.4054,1.14,0.3,1111122 
NERRS,ioos:station:NOAA.NERRS:gndbhwq:1,2014-04-02T07:00:00Z,30.4178,-88.4054,1.2,0.3,1111122 
NERRS,ioos:station:NOAA.NERRS:gndbhwq:1,2014-04-02T08:00:00Z,30.4178,-88.4054,1.25,0.3,1111122 
NERRS,ioos:station:NOAA.NERRS:gndbhwq:1,2014-04-02T09:00:00Z,30.4178,-88.4054,1.29,0.4,1111122 
NERRS,ioos:station:NOAA.NERRS:gndbhwq:1,2014-04-02T10:00:00Z,30.4178,-88.4054,1.29,0.7,1111122 
NERRS,ioos:station:NOAA.NERRS:gndbhwq:1,2014-04-02T11:00:00Z,30.4178,-88.4054,1.32,0.6,1111122 
NERRS,ioos:station:NOAA.NERRS:gndbhwq:1,2014-04-02T12:00:00Z,30.4178,-88.4054,1.32,15.4,1111122 
NERRS,ioos:station:NOAA.NERRS:gndbhwq:1,2014-04-02T13:00:00Z,30.4178,-88.4054,1.4,17.0,1111122 
NERRS,ioos:station:NOAA.NERRS:gndbhwq:1,2014-04-02T14:00:00Z,30.4178,-88.4054,1.46,17.2,1111122 
NERRS,ioos:station:NOAA.NERRS:gndbhwq:1,2014-04-02T15:00:00Z,30.4178,-88.4054,1.51,17.1,1111122 
NERRS,ioos:station:NOAA.NERRS:gndbhwq:1,2014-04-02T16:00:00Z,30.4178,-88.4054,1.54,17.0,1111122 
NERRS,ioos:station:NOAA.NERRS:gndbhwq:1,2014-04-02T17:00:00Z,30.4178,-88.4054,1.52,16.9,1111122 
NERRS,ioos:station:NOAA.NERRS:gndbhwq:1,2014-04-02T18:00:00Z,30.4178,-88.4054,1.5,16.6,1111122 
NERRS,ioos:station:NOAA.NERRS:gndbhwq:1,2014-04-02T19:00:00Z,30.4178,-88.4054,1.47,1.3,1111122 
NERRS,ioos:station:NOAA.NERRS:gndbhwq:1,2014-04-02T20:00:00Z,30.4178,-88.4054,1.43,0.6,1111122 
NERRS,ioos:station:NOAA.NERRS:gndbhwq:1,2014-04-02T21:00:00Z,30.4178,-88.4054,1.37,0.5,1111122 
NERRS,ioos:station:NOAA.NERRS:gndbhwq:1,2014-04-02T22:00:00Z,30.4178,-88.4054,1.31,0.4,1111122 
NERRS,ioos:station:NOAA.NERRS:gndbhwq:1,2014-04-02T23:00:00Z,30.4178,-88.4054,1.22,0.4,1111122 
NERRS,ioos:station:NOAA.NERRS:gndbhwq:1,2014-04-03T00:00:00Z,30.4178,-88.4054,1.1,0.4,1111122 
NERRS,ioos:station:NOAA.NERRS:gndbhwq:1,2014-04-03T01:00:00Z,30.4178,-88.4054,1.06,0.4,1111122 
NERRS,ioos:station:NOAA.NERRS:gndbhwq:1,2014-04-03T02:00:00Z,30.4178,-88.4054,1.04,0.4,1111122 
NERRS,ioos:station:NOAA.NERRS:gndbhwq:1,2014-04-03T03:00:00Z,30.4178,-88.4054,1.08,0.4,1111122 
NERRS,ioos:station:NOAA.NERRS:gndbhwq:1,2014-04-03T04:00:00Z,30.4178,-88.4054,1.13,0.4,1111122 
NERRS,ioos:station:NOAA.NERRS:gndbhwq:1,2014-04-03T05:00:00Z,30.4178,-88.4054,1.13,0.3,1111122 
NERRS,ioos:station:NOAA.NERRS:gndbhwq:1,2014-04-03T06:00:00Z,30.4178,-88.4054,1.19,0.3,1111122 
NERRS,ioos:station:NOAA.NERRS:gndbhwq:1,2014-04-03T07:00:00Z,30.4178,-88.4054,1.17,0.2,1111122 
NERRS,ioos:station:NOAA.NERRS:gndbhwq:1,2014-04-03T08:00:00Z,30.4178,-88.4054,1.22,0.2,1111122 
NERRS,ioos:station:NOAA.NERRS:gndbhwq:1,2014-04-03T09:00:00Z,30.4178,-88.4054,1.22,0.2,1111122 
NERRS,ioos:station:NOAA.NERRS:gndbhwq:1,2014-04-03T10:00:00Z,30.4178,-88.4054,1.26,0.2,1111122 
NERRS,ioos:station:NOAA.NERRS:gndbhwq:1,2014-04-03T11:00:00Z,30.4178,-88.4054,1.3,0.2,1111122 
NERRS,ioos:station:NOAA.NERRS:gndbhwq:1,2014-04-03T12:00:00Z,30.4178,-88.4054,1.38,0.2,1111122 
NERRS,ioos:station:NOAA.NERRS:gndbhwq:1,2014-04-03T13:00:00Z,30.4178,-88.4054,1.38,0.1,1111122 
NERRS,ioos:station:NOAA.NERRS:gndbhwq:1,2014-04-03T14:00:00Z,30.4178,-88.4054,1.42,0.1,1111122 
NERRS,ioos:station:NOAA.NERRS:gndbhwq:1,2014-04-03T15:00:00Z,30.4178,-88.4054,1.5,0.1,1111122 
NERRS,ioos:station:NOAA.NERRS:gndbhwq:1,2014-04-03T16:00:00Z,30.4178,-88.4054,1.53,0.1,1111122 
NERRS,ioos:station:NOAA.NERRS:gndbhwq:1,2014-04-03T17:00:00Z,30.4178,-88.4054,1.55,0.2,1111122 
NERRS,ioos:station:NOAA.NERRS:gndbhwq:1,2014-04-03T18:00:00Z,30.4178,-88.4054,1.54,12.9,1111122 
NERRS,ioos:station:NOAA.NERRS:gndbhwq:1,2014-04-03T19:00:00Z,30.4178,-88.4054,1.5,15.1,1111122 
NERRS,ioos:station:NOAA.NERRS:gndbhwq:1,2014-04-03T20:00:00Z,30.4178,-88.4054,1.44,15.4,1111122 
NERRS,ioos:station:NOAA.NERRS:gndbhwq:1,2014-04-03T21:00:00Z,30.4178,-88.4054,1.41,6.3,1111122 
NERRS,ioos:station:NOAA.NERRS:gndbhwq:1,2014-04-03T22:00:00Z,30.4178,-88.4054,1.37,0.2,1111122 
NERRS,ioos:station:NOAA.NERRS:gndbhwq:1,2014-04-03T23:00:00Z,30.4178,-88.4054,1.29,0.2,1111122 
NERRS,ioos:station:NOAA.NERRS:gndbhwq:1,2014-04-04T00:00:00Z,30.4178,-88.4054,1.21,0.1,1111122 
NERRS,ioos:station:NOAA.NERRS:gndbhwq:1,2014-04-04T01:00:00Z,30.4178,-88.4054,1.19,0.2,1111122 
NERRS,ioos:station:NOAA.NERRS:gndbhwq:1,2014-04-04T02:00:00Z,30.4178,-88.4054,1.11,0.1,1111122 
NERRS,ioos:station:NOAA.NERRS:gndbhwq:1,2014-04-04T03:00:00Z,30.4178,-88.4054,1.12,0.2,1111122 
NERRS,ioos:station:NOAA.NERRS:gndbhwq:1,2014-04-04T04:00:00Z,30.4178,-88.4054,1.13,0.2,1111122 
NERRS,ioos:station:NOAA.NERRS:gndbhwq:1,2014-04-04T05:00:00Z,30.4178,-88.4054,1.18,0.2,1111122 
NERRS,ioos:station:NOAA.NERRS:gndbhwq:1,2014-04-04T06:00:00Z,30.4178,-88.4054,1.21,0.2,1111122 
NERRS,ioos:station:NOAA.NERRS:gndbhwq:1,2014-04-04T07:00:00Z,30.4178,-88.4054,1.24,0.2,1111122 
NERRS,ioos:station:NOAA.NERRS:gndbhwq:1,2014-04-04T08:00:00Z,30.4178,-88.4054,1.21,0.2,1111122 
NERRS,ioos:station:NOAA.NERRS:gndbhwq:1,2014-04-04T09:00:00Z,30.4178,-88.4054,1.25,0.1,1111122 
NERRS,ioos:station:NOAA.NERRS:gndbhwq:1,2014-04-04T10:00:00Z,30.4178,-88.4054,1.28,0.1,1111122 
NERRS,ioos:station:NOAA.NERRS:gndbhwq:1,2014-04-04T11:00:00Z,30.4178,-88.4054,1.29,0.1,1111122 
NERRS,ioos:station:NOAA.NERRS:gndbhwq:1,2014-04-04T12:00:00Z,30.4178,-88.4054,1.33,0.1,1111122 
NERRS,ioos:station:NOAA.NERRS:gndbhwq:1,2014-04-04T13:00:00Z,30.4178,-88.4054,1.37,12.5,1111122 
NERRS,ioos:station:NOAA.NERRS:gndbhwq:1,2014-04-04T14:00:00Z,30.4178,-88.4054,1.41,16.3,1111122 
NERRS,ioos:station:NOAA.NERRS:gndbhwq:1,2014-04-04T15:00:00Z,30.4178,-88.4054,1.5,16.6,1111122 
NERRS,ioos:station:NOAA.NERRS:gndbhwq:1,2014-04-04T16:00:00Z,30.4178,-88.4054,1.52,16.6,1111122 
NERRS,ioos:station:NOAA.NERRS:gndbhwq:1,2014-04-04T17:00:00Z,30.4178,-88.4054,1.54,16.8,1111122 
NERRS,ioos:station:NOAA.NERRS:gndbhwq:1,2014-04-04T18:00:00Z,30.4178,-88.4054,1.56,16.8,1111122 
NERRS,ioos:station:NOAA.NERRS:gndbhwq:1,2014-04-04T19:00:00Z,30.4178,-88.4054,1.53,16.8,1111122 
NERRS,ioos:station:NOAA.NERRS:gndbhwq:1,2014-04-04T20:00:00Z,30.4178,-88.4054,1.49,16.9,1111122 
NERRS,ioos:station:NOAA.NERRS:gndbhwq:1,2014-04-04T21:00:00Z,30.4178,-88.4054,1.52,16.8,1111122 
NERRS,ioos:station:NOAA.NERRS:gndbhwq:1,2014-04-04T22:00:00Z,30.4178,-88.4054,1.46,16.7,1111122 
NERRS,ioos:station:NOAA.NERRS:gndbhwq:1,2014-04-04T23:00:00Z,30.4178,-88.4054,1.4,16.6,1111122 
NERRS,ioos:station:NOAA.NERRS:gndbhwq:1,2014-04-05T00:00:00Z,30.4178,-88.4054,1.36,16.4,1111122 
NERRS,ioos:station:NOAA.NERRS:gndbhwq:1,2014-04-05T01:00:00Z,30.4178,-88.4054,1.3,15.9,1111122 
NERRS,ioos:station:NOAA.NERRS:gndbhwq:1,2014-04-05T02:00:00Z,30.4178,-88.4054,1.12,15.4,1111122 
NERRS,ioos:station:NOAA.NERRS:gndbhwq:1,2014-04-05T03:00:00Z,30.4178,-88.4054,1.08,15.9,1111122 
NERRS,ioos:station:NOAA.NERRS:gndbhwq:1,2014-04-05T04:00:00Z,30.4178,-88.4054,1.06,16.3,1111122 
NERRS,ioos:station:NOAA.NERRS:gndbhwq:1,2014-04-05T05:00:00Z,30.4178,-88.4054,1.12,16.6,1111122 
NERRS,ioos:station:NOAA.NERRS:gndbhwq:1,2014-04-05T06:00:00Z,30.4178,-88.4054,1.05,16.3,1111122 
NERRS,ioos:station:NOAA.NERRS:gndbhwq:1,2014-04-05T07:00:00Z,30.4178,-88.4054,1.14,16.5,1111122 
NERRS,ioos:station:NOAA.NERRS:gndbhwq:1,2014-04-05T08:00:00Z,30.4178,-88.4054,0.98,16.1,1111122 
NERRS,ioos:station:NOAA.NERRS:gndbhwq:1,2014-04-05T09:00:00Z,30.4178,-88.4054,1.16,16.5,1111122 
NERRS,ioos:station:NOAA.NERRS:gndbhwq:1,2014-04-05T10:00:00Z,30.4178,-88.4054,1.0,16.3,1111122 
NERRS,ioos:station:NOAA.NERRS:gndbhwq:1,2014-04-05T11:00:00Z,30.4178,-88.4054,1.07,16.4,1111122 
NERRS,ioos:station:NOAA.NERRS:gndbhwq:1,2014-04-05T12:00:00Z,30.4178,-88.4054,1.11,16.5,1111122 
NERRS,ioos:station:NOAA.NERRS:gndbhwq:1,2014-04-05T13:00:00Z,30.4178,-88.4054,1.16,16.5,1111122 
NERRS,ioos:station:NOAA.NERRS:gndbhwq:1,2014-04-05T14:00:00Z,30.4178,-88.4054,1.19,16.5,1111122 
NERRS,ioos:station:NOAA.NERRS:gndbhwq:1,2014-04-05T15:00:00Z,30.4178,-88.4054,1.29,16.5,1111122 
NERRS,ioos:station:NOAA.NERRS:gndbhwq:1,2014-04-05T16:00:00Z,30.4178,-88.4054,1.31,16.5,1111122 
NERRS,ioos:station:NOAA.NERRS:gndbhwq:1,2014-04-05T17:00:00Z,30.4178,-88.4054,1.4,16.5,1111122 
NERRS,ioos:station:NOAA.NERRS:gndbhwq:1,2014-04-05T18:00:00Z,30.4178,-88.4054,1.43,16.5,1111122 
NERRS,ioos:station:NOAA.NERRS:gndbhwq:1,2014-04-05T19:00:00Z,30.4178,-88.4054,1.48,16.5,1111122 
NERRS,ioos:station:NOAA.NERRS:gndbhwq:1,2014-04-05T20:00:00Z,30.4178,-88.4054,1.46,16.5,1111122 
NERRS,ioos:station:NOAA.NERRS:gndbhwq:1,2014-04-05T21:00:00Z,30.4178,-88.4054,1.45,16.4,1111122 
NERRS,ioos:station:NOAA.NERRS:gndbhwq:1,2014-04-05T22:00:00Z,30.4178,-88.4054,1.38,16.3,1111122 
NERRS,ioos:station:NOAA.NERRS:gndbhwq:1,2014-04-05T23:00:00Z,30.4178,-88.4054,1.32,16.2,1111122 
NERRS,ioos:station:NOAA.NERRS:gndbhwq:1,2014-04-06T00:00:00Z,30.4178,-88.4054,1.29,16.1,1111122 
NERRS,ioos:station:NOAA.NERRS:gndbhwq:1,2014-04-06T01:00:00Z,30.4178,-88.4054,1.24,16.1,1111122 
NERRS,ioos:station:NOAA.NERRS:gndbhwq:1,2014-04-06T02:00:00Z,30.4178,-88.4054,1.12,16.0,1111122 
NERRS,ioos:station:NOAA.NERRS:gndbhwq:1,2014-04-06T03:00:00Z,30.4178,-88.4054,1.09,16.0,1111122 
NERRS,ioos:station:NOAA.NERRS:gndbhwq:1,2014-04-06T04:00:00Z,30.4178,-88.4054,1.08,16.0,1111122 
NERRS,ioos:station:NOAA.NERRS:gndbhwq:1,2014-04-06T05:00:00Z,30.4178,-88.4054,1.09,16.0,1111122 
NERRS,ioos:station:NOAA.NERRS:gndbhwq:1,2014-04-06T06:00:00Z,30.4178,-88.4054,1.02,15.8,1111122 
NERRS,ioos:station:NOAA.NERRS:gndbhwq:1,2014-04-06T07:00:00Z,30.4178,-88.4054,1.09,16.0,1111122 
NERRS,ioos:station:NOAA.NERRS:gndbhwq:1,2014-04-06T08:00:00Z,30.4178,-88.4054,1.1,15.6,1111122 
NERRS,ioos:station:NOAA.NERRS:gndbhwq:1,2014-04-06T10:00:00Z,30.4178,-88.4054,1.13,15.8,1111122 
NERRS,ioos:station:NOAA.NERRS:gndbhwq:1,2014-04-06T12:00:00Z,30.4178,-88.4054,1.21,15.9,1111122 
NERRS,ioos:station:NOAA.NERRS:gndbhwq:1,2014-04-06T13:00:00Z,30.4178,-88.4054,1.26,15.9,1111122 
NERRS,ioos:station:NOAA.NERRS:gndbhwq:1,2014-04-06T14:00:00Z,30.4178,-88.4054,1.12,15.7,1111122 
NERRS,ioos:station:NOAA.NERRS:gndbhwq:1,2014-04-06T15:00:00Z,30.4178,-88.4054,1.27,15.9,1111122 
NERRS,ioos:station:NOAA.NERRS:gndbhwq:1,2014-04-06T16:00:00Z,30.4178,-88.4054,1.25,15.7,1111122 
NERRS,ioos:station:NOAA.NERRS:gndbhwq:1,2014-04-06T17:00:00Z,30.4178,-88.4054,1.23,15.7,1111122 
NERRS,ioos:station:NOAA.NERRS:gndbhwq:1,2014-04-06T18:00:00Z,30.4178,-88.4054,1.34,15.7,1111122 
NERRS,ioos:station:NOAA.NERRS:gndbhwq:1,2014-04-06T19:00:00Z,30.4178,-88.4054,1.35,15.8,1111122 
NERRS,ioos:station:NOAA.NERRS:gndbhwq:1,2014-04-06T20:00:00Z,30.4178,-88.4054,1.37,15.7,1111122 
NERRS,ioos:station:NOAA.NERRS:gndbhwq:1,2014-04-06T21:00:00Z,30.4178,-88.4054,1.4,15.8,1111122 
NERRS,ioos:station:NOAA.NERRS:gndbhwq:1,2014-04-06T22:00:00Z,30.4178,-88.4054,1.42,15.7,1111122 
NERRS,ioos:station:NOAA.NERRS:gndbhwq:1,2014-04-06T23:00:00Z,30.4178,-88.4054,1.36,15.6,1111122 
NERRS,ioos:station:NOAA.NERRS:gndbhwq:1,2014-04-07T00:00:00Z,30.4178,-88.4054,1.41,15.5,1111122 
NERRS,ioos:station:NOAA.NERRS:gndbhwq:1,2014-04-07T01:00:00Z,30.4178,-88.4054,1.36,15.5,1111122 
NERRS,ioos:station:NOAA.NERRS:gndbhwq:1,2014-04-07T02:00:00Z,30.4178,-88.4054,1.38,15.4,1111122 
NERRS,ioos:station:NOAA.NERRS:gndbhwq:1,2014-04-07T03:00:00Z,30.4178,-88.4054,1.3,15.3,1111122 
NERRS,ioos:station:NOAA.NERRS:gndbhwq:1,2014-04-07T04:00:00Z,30.4178,-88.4054,1.3,15.3,1111122 
NERRS,ioos:station:NOAA.NERRS:gndbhwq:1,2014-04-07T05:00:00Z,30.4178,-88.4054,1.28,15.2,1111122 
NERRS,ioos:station:NOAA.NERRS:gndbhwq:1,2014-04-07T06:00:00Z,30.4178,-88.4054,1.23,15.1,1111122 
NERRS,ioos:station:NOAA.NERRS:gndbhwq:1,2014-04-07T07:00:00Z,30.4178,-88.4054,1.19,14.9,1111122 
NERRS,ioos:station:NOAA.NERRS:gndbhwq:1,2014-04-07T08:00:00Z,30.4178,-88.4054,1.27,15.1,1111122 
NERRS,ioos:station:NOAA.NERRS:gndbhwq:1,2014-04-07T09:00:00Z,30.4178,-88.4054,1.16,12.8,1111122 
NERRS,ioos:station:NOAA.NERRS:gndbhwq:1,2014-04-07T10:00:00Z,30.4178,-88.4054,1.21,15.1,1111122 
NERRS,ioos:station:NOAA.NERRS:gndbhwq:1,2014-04-07T11:00:00Z,30.4178,-88.4054,1.28,15.3,1111122 
NERRS,ioos:station:NOAA.NERRS:gndbhwq:1,2014-04-07T12:00:00Z,30.4178,-88.4054,1.36,15.0,1111122 
NERRS,ioos:station:NOAA.NERRS:gndbhwq:1,2014-04-07T13:00:00Z,30.4178,-88.4054,1.34,13.3,1111122 
NERRS,ioos:station:NOAA.NERRS:gndbhwq:1,2014-04-07T14:00:00Z,30.4178,-88.4054,1.44,14.7,1111122 
NERRS,ioos:station:NOAA.NERRS:gndbhwq:1,2014-04-07T15:00:00Z,30.4178,-88.4054,1.45,14.4,1111122 
NERRS,ioos:station:NOAA.NERRS:gndbhwq:1,2014-04-07T16:00:00Z,30.4178,-88.4054,1.28,14.2,1111122 
NERRS,ioos:station:NOAA.NERRS:gndbhwq:1,2014-04-07T17:00:00Z,30.4178,-88.4054,1.34,14.8,1111122 
NERRS,ioos:station:NOAA.NERRS:gndbhwq:1,2014-04-07T18:00:00Z,30.4178,-88.4054,1.33,14.1,1111122 
NERRS,ioos:station:NOAA.NERRS:gndbhwq:1,2014-04-07T19:00:00Z,30.4178,-88.4054,1.44,14.7,1111122 
NERRS,ioos:station:NOAA.NERRS:gndbhwq:1,2014-04-07T20:00:00Z,30.4178,-88.4054,1.43,14.0,1111122 
NERRS,ioos:station:NOAA.NERRS:gndbhwq:1,2014-04-07T21:00:00Z,30.4178,-88.4054,1.36,14.1,1111122 
NERRS,ioos:station:NOAA.NERRS:gndbhwq:1,2014-04-07T22:00:00Z,30.4178,-88.4054,1.29,13.1,1111122 
NERRS,ioos:station:NOAA.NERRS:gndbhwq:1,2014-04-07T23:00:00Z,30.4178,-88.4054,1.34,13.0,1111122 
NERRS,ioos:station:NOAA.NERRS:gndbhwq:1,2014-04-08T00:00:00Z,30.4178,-88.4054,1.32,13.1,1111122 
NERRS,ioos:station:NOAA.NERRS:gndbhwq:1,2014-04-08T01:00:00Z,30.4178,-88.4054,1.25,12.9,1111122 
NERRS,ioos:station:NOAA.NERRS:gndbhwq:1,2014-04-08T02:00:00Z,30.4178,-88.4054,1.21,12.3,1111122 
NERRS,ioos:station:NOAA.NERRS:gndbhwq:1,2014-04-08T03:00:00Z,30.4178,-88.4054,1.19,12.4,1111122 
NERRS,ioos:station:NOAA.NERRS:gndbhwq:1,2014-04-08T04:00:00Z,30.4178,-88.4054,1.12,12.4,1111122 
NERRS,ioos:station:NOAA.NERRS:gndbhwq:1,2014-04-08T05:00:00Z,30.4178,-88.4054,1.04,12.3,1111122 
NERRS,ioos:station:NOAA.NERRS:gndbhwq:1,2014-04-08T06:00:00Z,30.4178,-88.4054,0.91,12.5,1111122 
NERRS,ioos:station:NOAA.NERRS:gndbhwq:1,2014-04-08T07:00:00Z,30.4178,-88.4054,0.92,12.0,1111122 
NERRS,ioos:station:NOAA.NERRS:gndbhwq:1,2014-04-08T08:00:00Z,30.4178,-88.4054,0.9,12.2,1111122 
NERRS,ioos:station:NOAA.NERRS:gndbhwq:1,2014-04-08T09:00:00Z,30.4178,-88.4054,0.9,11.9,1111122 
NERRS,ioos:station:NOAA.NERRS:gndbhwq:1,2014-04-08T10:00:00Z,30.4178,-88.4054,0.98,12.4,1111122 
NERRS,ioos:station:NOAA.NERRS:gndbhwq:1,2014-04-08T11:00:00Z,30.4178,-88.4054,1.09,12.3,1111122 
NERRS,ioos:station:NOAA.NERRS:gndbhwq:1,2014-04-08T12:00:00Z,30.4178,-88.4054,1.18,12.3,1111122 
NERRS,ioos:station:NOAA.NERRS:gndbhwq:1,2014-04-08T13:00:00Z,30.4178,-88.4054,1.15,12.2,1111122 
NERRS,ioos:station:NOAA.NERRS:gndbhwq:1,2014-04-08T14:00:00Z,30.4178,-88.4054,1.2,12.0,1111122 
NERRS,ioos:station:NOAA.NERRS:gndbhwq:1,2014-04-08T15:00:00Z,30.4178,-88.4054,1.27,12.6,1111122 
NERRS,ioos:station:NOAA.NERRS:gndbhwq:1,2014-04-08T16:00:00Z,30.4178,-88.4054,1.35,12.4,1111122 
NERRS,ioos:station:NOAA.NERRS:gndbhwq:1,2014-04-08T17:00:00Z,30.4178,-88.4054,1.35,12.6,1111122 
NERRS,ioos:station:NOAA.NERRS:gndbhwq:1,2014-04-08T18:00:00Z,30.4178,-88.4054,1.27,12.3,1111122 
NERRS,ioos:station:NOAA.NERRS:gndbhwq:1,2014-04-08T19:00:00Z,30.4178,-88.4054,1.3,12.1,1111122 
NERRS,ioos:station:NOAA.NERRS:gndbhwq:1,2014-04-08T20:00:00Z,30.4178,-88.4054,1.29,12.2,1111122 
NERRS,ioos:station:NOAA.NERRS:gndbhwq:1,2014-04-08T21:00:00Z,30.4178,-88.4054,1.38,12.3,1111122 
NERRS,ioos:station:NOAA.NERRS:gndbhwq:1,2014-04-08T22:00:00Z,30.4178,-88.4054,1.38,12.3,1111122 
NERRS,ioos:station:NOAA.NERRS:gndbhwq:1,2014-04-08T23:00:00Z,30.4178,-88.4054,1.26,12.0,1111122 
NERRS,ioos:station:NOAA.NERRS:gndbhwq:1,2014-04-09T00:00:00Z,30.4178,-88.4054,1.34,12.9,1111122 
NERRS,ioos:station:NOAA.NERRS:gndbhwq:1,2014-04-09T01:00:00Z,30.4178,-88.4054,1.28,12.1,1111122 
NERRS,ioos:station:NOAA.NERRS:gndbhwq:1,2014-04-09T02:00:00Z,30.4178,-88.4054,1.07,11.7,1111122 
NERRS,ioos:station:NOAA.NERRS:gndbhwq:1,2014-04-09T03:00:00Z,30.4178,-88.4054,1.23,11.9,1111122 
NERRS,ioos:station:NOAA.NERRS:gndbhwq:1,2014-04-09T04:00:00Z,30.4178,-88.4054,0.9,11.5,1111122 
NERRS,ioos:station:NOAA.NERRS:gndbhwq:1,2014-04-09T05:00:00Z,30.4178,-88.4054,0.9,11.6,1111122 
NERRS,ioos:station:NOAA.NERRS:gndbhwq:1,2014-04-09T06:00:00Z,30.4178,-88.4054,0.96,11.8,1111122 
NERRS,ioos:station:NOAA.NERRS:gndbhwq:1,2014-04-09T07:00:00Z,30.4178,-88.4054,0.82,11.9,1111122 
NERRS,ioos:station:NOAA.NERRS:gndbhwq:1,2014-04-09T08:00:00Z,30.4178,-88.4054,0.87,11.8,1111122 
NERRS,ioos:station:NOAA.NERRS:gndbhwq:1,2014-04-09T09:00:00Z,30.4178,-88.4054,0.84,11.6,1111122 
NERRS,ioos:station:NOAA.NERRS:gndbhwq:1,2014-04-09T10:00:00Z,30.4178,-88.4054,0.84,11.9,1111122 
NERRS,ioos:station:NOAA.NERRS:gndbhwq:1,2014-04-09T11:00:00Z,30.4178,-88.4054,0.86,11.8,1111122 
NERRS,ioos:station:NOAA.NERRS:gndbhwq:1,2014-04-09T12:00:00Z,30.4178,-88.4054,0.91,12.0,1111122 
NERRS,ioos:station:NOAA.NERRS:gndbhwq:1,2014-04-09T13:00:00Z,30.4178,-88.4054,0.82,11.6,1111122 
NERRS,ioos:station:NOAA.NERRS:gndbhwq:1,2014-04-09T14:00:00Z,30.4178,-88.4054,0.92,12.1,1111122 
NERRS,ioos:station:NOAA.NERRS:gndbhwq:1,2014-04-09T15:00:00Z,30.4178,-88.4054,0.98,12.3,1111122 
NERRS,ioos:station:NOAA.NERRS:gndbhwq:1,2014-04-09T16:00:00Z,30.4178,-88.4054,1.08,12.1,1111122 
NERRS,ioos:station:NOAA.NERRS:gndbhwq:1,2014-04-09T17:00:00Z,30.4178,-88.4054,0.99,12.3,1111122 
NERRS,ioos:station:NOAA.NERRS:gndbhwq:1,2014-04-09T18:00:00Z,30.4178,-88.4054,1.07,12.2,1111122 
NERRS,ioos:station:NOAA.NERRS:gndbhwq:1,2014-04-09T19:00:00Z,30.4178,-88.4054,1.03,12.0,1111122 
NERRS,ioos:station:NOAA.NERRS:gndbhwq:1,2014-04-09T21:00:00Z,30.4178,-88.4054,1.13,11.9,1111122 
NERRS,ioos:station:NOAA.NERRS:gndbhwq:1,2014-04-09T22:00:00Z,30.4178,-88.4054,1.13,11.8,1111122 
NERRS,ioos:station:NOAA.NERRS:gndbhwq:1,2014-04-09T23:00:00Z,30.4178,-88.4054,1.24,11.9,1111122 
NERRS,ioos:station:NOAA.NERRS:gndbhwq:1,2014-04-10T00:00:00Z,30.4178,-88.4054,1.09,11.4,1111122 
NERRS,ioos:station:NOAA.NERRS:gndbhwq:1,2014-04-10T01:00:00Z,30.4178,-88.4054,1.19,11.3,1111122 
NERRS,ioos:station:NOAA.NERRS:gndbhwq:1,2014-04-10T02:00:00Z,30.4178,-88.4054,1.06,11.1,1111122 
NERRS,ioos:station:NOAA.NERRS:gndbhwq:1,2014-04-10T03:00:00Z,30.4178,-88.4054,1.13,11.5,1111122 
NERRS,ioos:station:NOAA.NERRS:gndbhwq:1,2014-04-10T04:00:00Z,30.4178,-88.4054,1.07,11.5,1111122 
NERRS,ioos:station:NOAA.NERRS:gndbhwq:1,2014-04-10T05:00:00Z,30.4178,-88.4054,1.02,11.3,1111122 
NERRS,ioos:station:NOAA.NERRS:gndbhwq:1,2014-04-10T06:00:00Z,30.4178,-88.4054,1.02,10.9,1111122 
NERRS,ioos:station:NOAA.NERRS:gndbhwq:1,2014-04-10T07:00:00Z,30.4178,-88.4054,0.92,10.7,1111122 
NERRS,ioos:station:NOAA.NERRS:gndbhwq:1,2014-04-10T08:00:00Z,30.4178,-88.4054,0.95,11.0,1111122 
NERRS,ioos:station:NOAA.NERRS:gndbhwq:1,2014-04-10T09:00:00Z,30.4178,-88.4054,0.9,10.7,1111122 
NERRS,ioos:station:NOAA.NERRS:gndbhwq:1,2014-04-10T10:00:00Z,30.4178,-88.4054,0.96,10.6,1111122 
NERRS,ioos:station:NOAA.NERRS:gndbhwq:1,2014-04-10T11:00:00Z,30.4178,-88.4054,0.92,10.9,1111122 
NERRS,ioos:station:NOAA.NERRS:gndbhwq:1,2014-04-10T12:00:00Z,30.4178,-88.4054,0.97,10.9,1111122 
NERRS,ioos:station:NOAA.NERRS:gndbhwq:1,2014-04-10T13:00:00Z,30.4178,-88.4054,0.99,11.1,1111122 
NERRS,ioos:station:NOAA.NERRS:gndbhwq:1,2014-04-10T14:00:00Z,30.4178,-88.4054,1.04,11.1,1111122 
NERRS,ioos:station:NOAA.NERRS:gndbhwq:1,2014-04-10T15:00:00Z,30.4178,-88.4054,1.12,11.2,1111122 
NERRS,ioos:station:NOAA.NERRS:gndbhwq:1,2014-04-10T16:00:00Z,30.4178,-88.4054,1.14,11.2,1111122 
NERRS,ioos:station:NOAA.NERRS:gndbhwq:1,2014-04-10T17:00:00Z,30.4178,-88.4054,1.14,11.1,1111122 
NERRS,ioos:station:NOAA.NERRS:gndbhwq:1,2014-04-10T18:00:00Z,30.4178,-88.4054,1.12,10.8,1111122 
NERRS,ioos:station:NOAA.NERRS:gndbhwq:1,2014-04-10T19:00:00Z,30.4178,-88.4054,1.15,10.8,1111122 
NERRS,ioos:station:NOAA.NERRS:gndbhwq:1,2014-04-10T20:00:00Z,30.4178,-88.4054,1.18,10.7,1111122 
NERRS,ioos:station:NOAA.NERRS:gndbhwq:1,2014-04-10T21:00:00Z,30.4178,-88.4054,1.16,10.5,1111122 
NERRS,ioos:station:NOAA.NERRS:gndbhwq:1,2014-04-10T22:00:00Z,30.4178,-88.4054,1.19,10.4,1111122 
NERRS,ioos:station:NOAA.NERRS:gndbhwq:1,2014-04-10T23:00:00Z,30.4178,-88.4054,1.18,9.4,1111122 
NERRS,ioos:station:NOAA.NERRS:gndbhwq:1,2014-04-11T00:00:00Z,30.4178,-88.4054,1.2,9.5,1111122 
NERRS,ioos:station:NOAA.NERRS:gndbhwq:1,2014-04-11T01:00:00Z,30.4178,-88.4054,1.19,8.3,1111122 
NERRS,ioos:station:NOAA.NERRS:gndbhwq:1,2014-04-11T02:00:00Z,30.4178,-88.4054,1.21,7.0,1111122 
NERRS,ioos:station:NOAA.NERRS:gndbhwq:1,2014-04-11T03:00:00Z,30.4178,-88.4054,1.2,9.3,1111122 
NERRS,ioos:station:NOAA.NERRS:gndbhwq:1,2014-04-11T04:00:00Z,30.4178,-88.4054,1.25,9.9,1111122 
NERRS,ioos:station:NOAA.NERRS:gndbhwq:1,2014-04-11T05:00:00Z,30.4178,-88.4054,1.23,9.4,1111122 
NERRS,ioos:station:NOAA.NERRS:gndbhwq:1,2014-04-11T06:00:00Z,30.4178,-88.4054,1.22,10.1,1111122 
NERRS,ioos:station:NOAA.NERRS:gndbhwq:1,2014-04-11T07:00:00Z,30.4178,-88.4054,1.13,9.3,1111122 
NERRS,ioos:station:NOAA.NERRS:gndbhwq:1,2014-04-11T08:00:00Z,30.4178,-88.4054,1.15,9.1,1111122 
NERRS,ioos:station:NOAA.NERRS:gndbhwq:1,2014-04-11T09:00:00Z,30.4178,-88.4054,1.14,9.0,1111122 
NERRS,ioos:station:NOAA.NERRS:gndbhwq:1,2014-04-11T10:00:00Z,30.4178,-88.4054,1.17,8.6,1111122 
NERRS,ioos:station:NOAA.NERRS:gndbhwq:1,2014-04-11T11:00:00Z,30.4178,-88.4054,1.24,9.0,1111122 
NERRS,ioos:station:NOAA.NERRS:gndbhwq:1,2014-04-11T12:00:00Z,30.4178,-88.4054,1.24,8.5,1111122 
NERRS,ioos:station:NOAA.NERRS:gndbhwq:1,2014-04-11T13:00:00Z,30.4178,-88.4054,1.27,8.9,1111122 
NERRS,ioos:station:NOAA.NERRS:gndbhwq:1,2014-04-11T14:00:00Z,30.4178,-88.4054,1.27,9.2,1111122 
NERRS,ioos:station:NOAA.NERRS:gndbhwq:1,2014-04-11T15:00:00Z,30.4178,-88.4054,1.28,8.8,1111122 
NERRS,ioos:station:NOAA.NERRS:gndbhwq:1,2014-04-11T16:00:00Z,30.4178,-88.4054,1.3,7.7,1111122 
NERRS,ioos:station:NOAA.NERRS:gndbhwq:1,2014-04-11T17:00:00Z,30.4178,-88.4054,1.3,6.8,1111122 